STARLINK-11534, 62555

Orbit data source: Space-Track

STARLINK-11534, 62555 is a payload satellite owned by SpaceX/Seattle (US) in LEO that was launched on Fri, 10 Jan 2025 UTC via an FALCON 9 launch vehicle from the Air Force Eastern Test Range (AFETR). Payload-class satellites include a variety of spacecraft equipped with specific instruments for various scientific and technological missions. These include communications satellites like Starlink; space stations such as the ISS; scientific satellites like the Hubble; Earth observation satellites from companies like Planet Labs, Umbra, and HawkEye 360; GPS; miniature CubeSats for education and research; and military/defense satellites.

Loading next visibility...
Identifier
62555, 2025-006B
Orbit
LEO
Country
Flag of USUS
Related business
Manufacturer
SpaceX/Seattle
Mission
Operational Commercial Communications
Bus & Motor
STARLINK V2MD, Unknown motor
Mass
960 kg wet, ~910 kg dry
Launch date (UTC)
2025-01-10 (1 year ago)
Launch vehicle
FALCON 9
Launch site
Air Force Eastern Test Range (AFETR)
Object type
Payload
Rocket body
Debris
Shape & HBR
Box + 2 Pan, 18.1 m
Radar Cross Section
36.964 m², Large (>1 m²)

Expand to show TLE details & history
Last TLE update: 16 hours ago

TLE from 16 hours ago
0 STARLINK-11534
1 62555U 25006B   26171.23689044  .00183906  00000-0  13956-2 0  9992
2 62555  42.9991 241.4871 0001284 230.5364 129.5390 15.71004090 82730
Epoch: 2026-06-20T05:41Z
TLE epoch observation values (Epoch: 2026-06-20T05:41:07.334Z)
Latitude
-0.00001°
Longitude
-112.24787°
Altitude
356.348 km
Speed
7.697 km/s
True Right ascension
16h 05m 56s
True Declination
0° 00' 00"
Sunlit
Object was in full shadow at epoch
Visualization orbit readout
Latitude
Unknown
Longitude
Unknown
Altitude
Unknown
Speed
Unknown
Apparent Right ascension
Unknown
Apparent Declination
Unknown
Sunlit
N/A
Visualization observer readout
Local Sidereal Time
08:41:51
Azimuth
Unknown
Elevation
Unknown
Doppler factor
Unknown
Orbital elements
Apogee altitude
358.873 km
Perigee altitude
357.143 km
Semi-major axis
6,736.145 km
Eccentricity
0.00013
Inclination
42.9991°
RAAN
241.4871°
Arg. of periapsis
230.5364°
True anomaly
129.55035°
Mean anomaly
129.539°
Eccentric anomaly
129.54467°
Mean motion
3.92578 °/min
Orbital period
91.7 mins
BSTAR
0.0013956
Loading maneuver chart data...
Computing Atmospheric mass density...
Loading historical data...
Loading historical data...
Loading historical data...
Loading historical data...
Loading historical data...
Loading historical data...
Loading historical data...

Documentation

Showing up to 5 results
|